Satellite: ISS
Catalog number: 25544
Epoch time:      08283.45349883
Element set:     412
Inclination:      051.6426 deg
RA of node:       150.4904 deg
Eccentricity:    0.0004029
Arg of perigee:   196.0234 deg
Mean anomaly:     226.3163 deg
Mean motion:   15.72108062 rev/day
Decay rate:      9.869e-05 rev/day^2
Epoch rev:           56651
Checksum:              297

Satellite: CO-58
Catalog number: 28895
Epoch time:      08282.36260956
Element set:    0140
Inclination:      098.0828 deg
RA of node:       173.6120 deg
Eccentricity:    0.0018798
Arg of perigee:   058.4969 deg
Mean anomaly:     301.8042 deg
Mean motion:   14.59701744 rev/day
Decay rate:        3.3e-07 rev/day^2
Epoch rev:           15699
Checksum:              343

Satellite: FALCON
Catalog number: 30776
Epoch time:      08282.96382333
Element set:    0419
Inclination:      035.4335 deg
RA of node:       183.4268 deg
Eccentricity:    0.0001568
Arg of perigee:   291.3352 deg
Mean anomaly:     068.7197 deg
Mean motion:   15.03068107 rev/day
Decay rate:       4.12e-06 rev/day^2
Epoch rev:           08727
Checksum:              303

Satellite: MAST
Catalog number: 31126
Epoch time:      08282.69466363
Element set:    0434
Inclination:      098.0265 deg
RA of node:       342.5204 deg
Eccentricity:    0.0094498
Arg of perigee:   340.7901 deg
Mean anomaly:     018.9725 deg
Mean motion:   14.53448867 rev/day
Decay rate:        7.6e-07 rev/day^2
Epoch rev:           07850
Checksum:              320

Satellite: CAPE1
Catalog number: 31130
Epoch time:      08282.82807652
Element set:    0425
Inclination:      098.0288 deg
RA of node:       341.3999 deg
Eccentricity:    0.0102735
Arg of perigee:   344.1721 deg
Mean anomaly:     015.6242 deg
Mean motion:   14.51995861 rev/day
Decay rate:        5.0e-08 rev/day^2
Epoch rev:           07821
Checksum:              294

Satellite: COMPASS
Catalog number: 32787
Epoch time:      08282.25186501
Element set:    0168
Inclination:      097.9768 deg
RA of node:       341.7502 deg
Eccentricity:    0.0016699
Arg of perigee:   127.9917 deg
Mean anomaly:     232.2804 deg
Mean motion:   14.81470779 rev/day
Decay rate:       1.01e-06 rev/day^2
Epoch rev:           02414
Checksum:              316

Satellite: AAUSAT2
Catalog number: 32788
Epoch time:      08282.91519856
Element set:    0169
Inclination:      097.9779 deg
RA of node:       342.4315 deg
Eccentricity:    0.0016529
Arg of perigee:   126.4486 deg
Mean anomaly:     233.8229 deg
Mean motion:   14.81582586 rev/day
Decay rate:       -2.3e-07 rev/day^2
Epoch rev:           02424
Checksum:              339

Satellite: DO-64
Catalog number: 32789
Epoch time:      08282.86031353
Element set:    0182
Inclination:      097.9782 deg
RA of node:       342.4174 deg
Eccentricity:    0.0016676
Arg of perigee:   126.1149 deg
Mean anomaly:     234.1609 deg
Mean motion:   14.81488783 rev/day
Decay rate:        7.7e-07 rev/day^2
Epoch rev:           02423
Checksum:              329

Satellite: CO-66
Catalog number: 32791
Epoch time:      08282.47018044
Element set:    0165
Inclination:      097.9792 deg
RA of node:       341.9889 deg
Eccentricity:    0.0016996
Arg of perigee:   124.8657 deg
Mean anomaly:     235.4160 deg
Mean motion:   14.81323452 rev/day
Decay rate:       2.24e-06 rev/day^2
Epoch rev:           02414
Checksum:              326

Satellite: RS-30
Catalog number: 32953
Epoch time:      08282.57874939
Element set:    0129
Inclination:      082.5011 deg
RA of node:       053.0636 deg
Eccentricity:    0.0019063
Arg of perigee:   010.6868 deg
Mean anomaly:     349.4619 deg
Mean motion:   12.42997703 rev/day
Decay rate:        1.0e-07 rev/day^2
Epoch rev:           01713
Checksum:              301

/EX



_______________________________________________
Via the Keps mailing list courtesy of AMSAT-NA
http://amsat.org/mailman/listinfo/keps

--- ViaMAIL!/WC v1.60d
 * Origin: Chowdanet (401-724-4410) telnet://chowdanet.com  (1:323/120)